Rogers City, MI

8:06 AM EDT on May 25, 2017 (GMT -0400)
Presque Isle County

Weather History for KPZQ - March, 2013

Change the Weather History Date:

Sunday, March 17, 2013

  Actual Average (KAPN) Record (KAPN)
Temperature  
Mean Temperature 18 °F -  
Max Temperature 21 °F 38 °F 81 °F (2012)
Min Temperature 14 °F 17 °F -8 °F (1961)
Degree Days  
Heating Degree Days 48    
Moisture  
Dew Point 6 °F    
Average Humidity 64    
Maximum Humidity 85    
Minimum Humidity 56    
Precipitation  
Precipitation 0.00 in - - ()
Sea Level Pressure  
Sea Level Pressure 30.23 in    
Wind  
Wind Speed 9 mph (North)    
Max Wind Speed 20 mph    
Max Gust Speed 25 mph    
Visibility 10 miles    
Events Snow    
Averages and records for this station are not official NWS values.
T = Trace of Precipitation, MM = Missing Value Source: NWS Daily Summary

Daily Weather History Graph

Daily Weather History Graph

Search for Another Location

Airport or City:

Trip Planner

Search our weather history database for the weather conditions in past years. The results will help you decide how hot, cold, wet, or windy it might be!

Date:

Astronomy

Mar. 17, 2013 Rise Set
Actual Time 7:43 AM EDT 7:44 PM EDT
Civil Twilight 7:14 AM EDT 8:13 PM EDT
Nautical Twilight 6:39 AM EDT 8:48 PM EDT
Astronomical Twilight 6:04 AM EDT 9:23 PM EDT
Moon 10:39 AM EDT (3/17) 1:06 AM EDT (3/17)
Length of Visible Light 12h 59m
Length of Day
12h 00m
Waxing Crescent, 31% of the Moon is Illuminated
Mar 17
Waxing Crescent
Mar 19
First Quarter
Mar 27
Full
Apr 3
Last Quarter
Apr 10
New

Hourly Weather History & Observations

Time (EDT) Temp. Windchill Dew Point Humidity Pressure Visibility Wind Dir Wind Speed Gust Speed Precip Events Conditions
12:15 AM 18.5 °F 8.4 °F 9.5 °F 68% 30.01 in 10.0 mi WSW 8.1 mph - N/A   Overcast
12:35 AM 18.9 °F 9.8 °F 9.5 °F 67% 30.01 in 10.0 mi WSW 6.9 mph - N/A   Overcast
12:55 AM 18.7 °F 8.6 °F 11.5 °F 74% 30.02 in 3.0 mi SW 8.1 mph - N/A Snow Light Snow
1:15 AM 18.7 °F 10.6 °F 13.6 °F 81% 30.03 in 3.0 mi West 5.8 mph - N/A Snow Light Snow
1:35 AM 18.1 °F 7.9 °F 14.4 °F 85% 30.02 in 2.5 mi WSW 8.1 mph - N/A Snow Light Snow
1:55 AM 18.5 °F 8.4 °F 14.5 °F 85% 30.02 in 10.0 mi WSW 8.1 mph - N/A   Overcast
2:15 AM 18.9 °F 8.8 °F 14.5 °F 83% 30.02 in 10.0 mi West 8.1 mph - N/A   Overcast
2:35 AM 19.2 °F 8.4 °F 14.9 °F 83% 30.03 in 10.0 mi West 9.2 mph - N/A   Overcast
2:55 AM 20.1 °F 9.5 °F 15.1 °F 81% 30.04 in 10.0 mi WNW 9.2 mph 19.6 mph N/A   Overcast
3:14 AM 21.9 °F 6.9 °F 14.9 °F 74% 30.05 in 10.0 mi NNW 19.6 mph 25.3 mph N/A   Overcast
3:35 AM 20.3 °F 6.1 °F 14.5 °F 78% 30.07 in 10.0 mi NNW 16.1 mph 24.2 mph N/A   Overcast
3:54 AM 19.6 °F 5.2 °F 11.3 °F 70% 30.09 in 10.0 mi NNW 16.1 mph 24.2 mph N/A   Mostly Cloudy
4:15 AM 18.3 °F 3.6 °F 7.9 °F 64% 30.11 in 10.0 mi NNW 16.1 mph 24.2 mph N/A   Mostly Cloudy
4:35 AM 17.6 °F 3.2 °F 5.2 °F 58% 30.12 in 10.0 mi NNW 15.0 mph 24.2 mph N/A   Scattered Clouds
4:55 AM 17.2 °F 2.2 °F 3.7 °F 56% 30.13 in 10.0 mi North 16.1 mph 25.3 mph N/A   Scattered Clouds
5:15 AM 16.7 °F 1.0 °F 4.3 °F 58% 30.15 in 10.0 mi North 17.3 mph 23.0 mph N/A   Scattered Clouds
5:35 AM 16.5 °F 2.4 °F 3.9 °F 58% 30.15 in 10.0 mi NNW 13.8 mph 21.9 mph N/A   Scattered Clouds
5:54 AM 16.2 °F 2.5 °F 3.2 °F 57% 30.17 in 10.0 mi NNW 12.7 mph 18.4 mph N/A   Scattered Clouds
6:15 AM 15.8 °F 1.4 °F 3.2 °F 58% 30.18 in 10.0 mi NNW 13.8 mph 19.6 mph N/A   Scattered Clouds
6:35 AM 15.6 °F 2.5 °F 3.2 °F 58% 30.19 in 10.0 mi NNW 11.5 mph 20.7 mph N/A   Mostly Cloudy
6:55 AM 15.3 °F 2.0 °F 3.4 °F 59% 30.20 in 10.0 mi NNW 11.5 mph 18.4 mph N/A   Mostly Cloudy
7:15 AM 14.7 °F 2.1 °F 3.0 °F 60% 30.22 in 10.0 mi North 10.4 mph 17.3 mph N/A   Mostly Cloudy
7:34 AM 14.5 °F 0.5 °F 3.2 °F 61% 30.22 in 10.0 mi NNW 12.7 mph 19.6 mph N/A   Mostly Cloudy
7:55 AM 14.0 °F 1.2 °F 3.2 °F 62% 30.23 in 10.0 mi NNW 10.4 mph 21.9 mph N/A   Mostly Cloudy
8:15 AM 14.0 °F 1.2 °F 3.2 °F 62% 30.25 in 10.0 mi NNW 10.4 mph 17.3 mph N/A   Mostly Cloudy
8:35 AM 14.0 °F 1.2 °F 3.2 °F 62% 30.25 in 10.0 mi NNW 10.4 mph 16.1 mph N/A   Mostly Cloudy
8:55 AM 14.0 °F 1.2 °F 3.6 °F 63% 30.26 in 10.0 mi North 10.4 mph 17.3 mph N/A   Mostly Cloudy
9:15 AM 14.7 °F 2.1 °F 4.6 °F 64% 30.27 in 10.0 mi North 10.4 mph - N/A   Mostly Cloudy
9:35 AM 15.1 °F 4.2 °F 3.6 °F 60% 30.27 in 10.0 mi North 8.1 mph 18.4 mph N/A   Mostly Cloudy
9:55 AM 14.5 °F 2.7 °F 3.4 °F 61% 30.28 in 10.0 mi North 9.2 mph - N/A   Mostly Cloudy
10:14 AM 14.9 °F 2.3 °F 3.9 °F 62% 30.29 in 10.0 mi North 10.4 mph - N/A   Mostly Cloudy
10:35 AM 14.9 °F 2.3 °F 3.7 °F 61% 30.30 in 10.0 mi North 10.4 mph - N/A   Mostly Cloudy
10:55 AM 14.9 °F 4.0 °F 3.0 °F 59% 30.30 in 10.0 mi North 8.1 mph - N/A   Mostly Cloudy
11:15 AM 15.8 °F 6.1 °F 3.9 °F 60% 30.32 in 10.0 mi North 6.9 mph - N/A   Mostly Cloudy
11:35 AM 16.3 °F 7.8 °F 3.7 °F 58% 30.32 in 10.0 mi North 5.8 mph - N/A   Scattered Clouds
11:55 AM 16.0 °F 8.8 °F 3.7 °F 59% 30.33 in 10.0 mi North 4.6 mph - N/A   Scattered Clouds
12:15 PM 16.0 °F 8.8 °F 4.1 °F 60% 30.33 in 10.0 mi NNE 4.6 mph - N/A   Clear
12:35 PM 16.2 °F 7.6 °F 4.8 °F 61% 30.33 in 10.0 mi NNE 5.8 mph - N/A   Clear
12:55 PM 16.3 °F 10.8 °F 5.0 °F 61% 30.34 in 10.0 mi North 3.5 mph - N/A   Clear
1:15 PM 16.7 °F 9.6 °F 5.0 °F 60% 30.34 in 10.0 mi NE 4.6 mph - N/A   Clear
1:35 PM 16.7 °F 7.2 °F 5.2 °F 61% 30.34 in 10.0 mi NE 6.9 mph - N/A   Clear
1:55 PM 16.7 °F 11.2 °F 4.3 °F 58% 30.34 in 10.0 mi NE 3.5 mph - N/A   Clear
2:15 PM 16.9 °F 9.8 °F 4.8 °F 59% 30.34 in 10.0 mi North 4.6 mph - N/A   Clear
2:34 PM 17.2 °F 10.2 °F 5.4 °F 60% 30.34 in 10.0 mi NNW 4.6 mph - N/A   Clear
2:55 PM 17.6 °F 10.7 °F 5.4 °F 59% 30.33 in 10.0 mi North 4.6 mph - N/A   Clear
3:15 PM 17.8 °F 9.6 °F 5.5 °F 59% 30.32 in 10.0 mi North 5.8 mph - N/A   Clear
3:35 PM 18.5 °F 11.7 °F 6.8 °F 60% 30.31 in 10.0 mi NNE 4.6 mph - N/A   Clear
3:55 PM 18.1 °F 11.3 °F 6.3 °F 60% 30.30 in 10.0 mi NE 4.6 mph - N/A   Clear
4:15 PM 18.3 °F 9.1 °F 5.5 °F 57% 30.30 in 10.0 mi NE 6.9 mph - N/A   Clear
4:35 PM 18.3 °F 10.2 °F 5.7 °F 58% 30.30 in 10.0 mi North 5.8 mph - N/A   Clear
4:55 PM 18.9 °F 12.1 °F 6.4 °F 58% 30.30 in 10.0 mi NE 4.6 mph - N/A   Clear
5:14 PM 18.5 °F 9.3 °F 6.1 °F 58% 30.29 in 10.0 mi NE 6.9 mph - N/A   Clear
5:35 PM 18.7 °F 10.6 °F 6.3 °F 58% 30.29 in 10.0 mi NE 5.8 mph - N/A   Clear
5:55 PM 18.7 °F 10.6 °F 6.3 °F 58% 30.29 in 10.0 mi NNE 5.8 mph - N/A   Clear
6:15 PM 19.0 °F 11.1 °F 6.8 °F 59% 30.29 in 10.0 mi ENE 5.8 mph - N/A   Clear
6:35 PM 18.5 °F 10.4 °F 5.9 °F 58% 30.29 in 10.0 mi NE 5.8 mph - N/A   Clear
6:55 PM 18.5 °F 10.4 °F 6.3 °F 59% 30.28 in 10.0 mi ENE 5.8 mph - N/A   Clear
7:15 PM 18.3 °F 10.2 °F 6.3 °F 59% 30.28 in 10.0 mi East 5.8 mph - N/A   Clear
7:35 PM 17.4 °F 9.1 °F 6.3 °F 62% 30.28 in 10.0 mi East 5.8 mph - N/A   Clear
7:55 PM 17.2 °F 7.8 °F 7.0 °F 64% 30.28 in 10.0 mi ESE 6.9 mph - N/A   Clear
8:15 PM 17.2 °F 8.9 °F 6.8 °F 64% 30.29 in 10.0 mi ESE 5.8 mph - N/A   Clear
8:35 PM 17.1 °F 8.7 °F 6.8 °F 64% 30.29 in 10.0 mi SE 5.8 mph - N/A   Clear
8:55 PM 16.7 °F 8.3 °F 7.3 °F 67% 30.29 in 10.0 mi SE 5.8 mph - N/A   Clear
9:15 PM 16.5 °F 6.9 °F 6.6 °F 65% 30.29 in 10.0 mi SSE 6.9 mph - N/A   Clear
9:34 PM 15.8 °F 8.6 °F 6.1 °F 66% 30.29 in 10.0 mi SSE 4.6 mph - N/A   Clear
9:55 PM 15.8 °F 7.2 °F 5.9 °F 65% 30.28 in 10.0 mi SE 5.8 mph - N/A   Clear
10:15 PM 15.4 °F 6.8 °F 5.9 °F 66% 30.28 in 10.0 mi SE 5.8 mph - N/A   Clear
10:35 PM 15.4 °F 6.8 °F 6.4 °F 68% 30.27 in 10.0 mi SE 5.8 mph - N/A   Clear
10:55 PM 15.6 °F 7.0 °F 6.6 °F 68% 30.27 in 10.0 mi SSE 5.8 mph - N/A   Clear
11:15 PM 15.8 °F 6.1 °F 6.8 °F 68% 30.27 in 10.0 mi SSE 6.9 mph - N/A   Clear
11:35 PM 16.3 °F 6.7 °F 7.0 °F 67% 30.26 in 10.0 mi SE 6.9 mph - N/A   Clear
11:55 PM 16.2 °F 9.0 °F 6.8 °F 67% 30.26 in 10.0 mi SSE 4.6 mph - N/A   Clear